This is the latest recevied weather packets stored in our database for station/object KC4KQE. If no packets are shown the sender has not sent any weather packets the latest 10 day(s).
| Time | Temp. | Humidity | Pressure | Rain* | Wind** | Luminosity | Snow |
|---|---|---|---|---|---|---|---|
| 1777952057 | 22.78° C | 31% | 1012.2 hPa | 0 mm | - | 0 W/m² | - |
| 1777951756 | 22.78° C | 31% | 1012 hPa | 0 mm | - | 0 W/m² | - |
| 1777951456 | 22.78° C | 30% | 1012 hPa | 0 mm | - | 0 W/m² | - |
| 1777951156 | 22.78° C | 30% | 1012 hPa | 0 mm | - | 0 W/m² | - |
| 1777950856 | 22.78° C | 30% | 1011.9 hPa | 0 mm | - | 0 W/m² | - |
| 1777950557 | 22.78° C | 30% | 1011.9 hPa | 0 mm | - | 0 W/m² | - |
| 1777950256 | 22.78° C | 31% | 1011.8 hPa | 0 mm | - | 0 W/m² | - |
| 1777949956 | 22.78° C | 31% | 1011.9 hPa | 0 mm | - | 0 W/m² | - |
| 1777949657 | 22.78° C | 31% | 1011.8 hPa | 0 mm | - | 0 W/m² | - |
| 1777949356 | 23.33° C | 31% | 1011.7 hPa | 0 mm | - | 0 W/m² | - |
| 1777949056 | 23.33° C | 34% | 1011.9 hPa | 0 mm | - | 0 W/m² | - |
| 1777948757 | 23.33° C | 37% | 1011.9 hPa | 0 mm | - | 0 W/m² | - |
| 1777948456 | 23.33° C | 37% | 1012 hPa | 0 mm | - | 0 W/m² | - |
| 1777948156 | 23.33° C | 37% | 1012 hPa | 0 mm | - | 0 W/m² | - |
| 1777947857 | 23.33° C | 37% | 1011.9 hPa | 0 mm | - | 0 W/m² | - |
| 1777947556 | 23.33° C | 37% | 1011.8 hPa | 0 mm | - | 5 W/m² | - |
| 1777947256 | 23.33° C | 37% | 1011.6 hPa | 0 mm | - | 0 W/m² | - |
| 1777946958 | 23.33° C | 37% | 1011.5 hPa | 0 mm | - | 0 W/m² | - |
| 1777946656 | 23.33° C | 37% | 1011.4 hPa | 0 mm | - | 0 W/m² | - |
| 1777946356 | 23.33° C | 37% | 1011.3 hPa | 0 mm | - | 5 W/m² | - |
| 1777946056 | 23.33° C | 37% | 1011.1 hPa | 0 mm | - | 11 W/m² | - |
| 1777945756 | 23.33° C | 37% | 1011.1 hPa | 0 mm | - | 18 W/m² | - |
| 1777945457 | 23.33° C | 37% | 1011.2 hPa | 0 mm | - | 26 W/m² | - |
| 1777945156 | 23.89° C | 36% | 1011.3 hPa | 0 mm | - | 21 W/m² | - |
| 1777944856 | 23.89° C | 36% | 1011.5 hPa | 0 mm | - | 25 W/m² | - |
* Rain latest hour (hover to see other rain measurements)
** Current wind speed in m/s (hover to see current wind gust speed)